This demonstration page uses our WeatherBlox Daily Observations layout. Learn more.

Left ArrowRight Arrow

Hourly Observations for December 15, 2015

Temp ( °F °C ) Dew Point ( °F °C ) Humidity (%) Winds ( mph kmh ) Pressure ( in mb ) Visibility ( mi km ) Precip ( " mm )
12:31 am 00:31 Cloudy 47 8.3 42 5.6 83 83 WSW 5 7 29.74 1007 10 16 0.00 0.00
12:53 am 00:53 Cloudy 46 7.8 42 5.6 86 86 SW 5 7 29.70 1006 10 16 0.00 0.00
1:10 am 01:10 Cloudy 47 8.3 41 5 80 80 SW 9 15 29.74 1007 10 16 0.00 0.00
1:53 am 01:53 Cloudy 46 7.8 39 3.9 77 77 W 14 22 29.73 1007 10 16 0.00 0.03
2:53 am 02:53 Mostly Cloudy 45 7.2 39 3.9 80 80 WSW 10 17 29.76 1008 10 16 0.00 0.00
3:53 am 03:53 Cloudy 45 7.2 40 4.4 83 83 WSW 9 15 29.79 1009 10 16 0.00 0.00
4:35 am 04:35 Cloudy 44 6.7 40 4.4 85 85 WSW 8 13 29.83 1010 10 16 0.00 0.00
4:53 am 04:53 Cloudy 44 6.7 40 4.4 85 85 WSW 7 11 29.81 1009 10 16 0.00 0.00
5:53 am 05:53 Cloudy 44 6.7 39 3.9 83 83 WSW 7 11 29.83 1010 10 16 0.00 0.00
6:17 am 06:17 Cloudy 44 6.7 39 3.9 83 83 W 7 11 29.85 1011 10 16 0.00 0.00
6:39 am 06:39 Cloudy 44 6.7 40 4.4 85 85 W 6 9 29.88 1012 9 14 0.00 0.00
6:53 am 06:53 Cloudy with Light Rain 43 6.1 40 4.4 89 89 W 6 9 29.85 1011 10 16 0.00 0.03
7:20 am 07:20 Mostly Cloudy 43 6.1 39 3.9 86 86 WSW 7 11 29.88 1012 10 16 0.00 0.03
7:36 am 07:36 Mostly Cloudy 44 6.7 39 3.9 83 83 W 7 11 29.91 1013 10 16 0.00 0.03
7:53 am 07:53 Cloudy 44 6.7 38 3.3 79 79 W 9 15 29.88 1012 10 16 0.00 0.03
8:53 am 08:53 Cloudy 44 6.7 38 3.3 79 79 WSW 9 15 29.92 1013 10 16 0.00 0.00
9:53 am 09:53 Cloudy 46 7.8 39 3.9 77 77 W 7 11 29.95 1014 10 16 0.00 0.00
10:53 am 10:53 Cloudy 45 7.2 37 2.8 74 74 WNW 10 17 29.97 1015 10 16 0.00 0.00
11:53 am 11:53 Cloudy 46 7.8 38 3.3 73 73 W 8 13 29.96 1015 10 16 0.00 0.00
12:53 pm 12:53 Cloudy 46 7.8 37 2.8 71 71 WSW 6 9 29.96 1015 10 16 0.00 0.00
1:53 pm 13:53 Cloudy 45 7.2 37 2.8 74 74 WNW 3 6 29.95 1014 10 16 0.00 0.00
2:53 pm 14:53 Cloudy 45 7.2 38 3.3 77 77 NNW 3 6 29.94 1014 10 16 0.00 0.00
3:53 pm 15:53 Cloudy 45 7.2 38 3.3 77 77 NNW 3 6 29.96 1015 10 16 0.00 0.00
4:53 pm 16:53 Cloudy 46 7.8 38 3.3 73 73 Calm 29.97 1015 10 16 0.00 0.00
5:53 pm 17:53 Cloudy 45 7.2 39 3.9 80 80 Calm 29.98 1015 10 16 0.00 0.00
6:53 pm 18:53 Cloudy 45 7.2 38 3.3 77 77 NNE 5 7 29.98 1015 10 16 0.00 0.00
7:53 pm 19:53 Cloudy 45 7.2 38 3.3 77 77 NNE 3 6 29.99 1016 10 16 0.00 0.00
8:53 pm 20:53 Cloudy 42 5.6 37 2.8 82 82 Calm 30.00 1016 10 16 0.00 0.00
9:53 pm 21:53 Mostly Cloudy 38 3.3 36 2.2 93 93 Calm 29.99 1016 10 16 0.00 0.00
10:41 pm 22:41 Partly Cloudy 39 3.9 37 2.8 93 93 Calm 30.03 1017 10 16 0.00 0.00
10:53 pm 22:53 Clear 39 3.9 37 2.8 93 93 E 3 6 30.00 1016 10 16 0.00 0.00
11:53 pm 23:53 Clear 36 2.2 34 1.1 93 93 E 3 6 29.98 1015 10 16 0.00 0.00

Powered by AerisWeather